Location: Ladrillo (historical)
(32.8195°N, 117.2231°W)
Time: 19:12:50
(UTC+00:00)

NOAA 18 - Pass Details

Date: 21 April 2021
Orbit: 840 x 861 km, 99.0° (Epoch: 05 May)

Event Time Altitude Azimuth Distance (km) Brightness Sun altitude
Exits shadow 05:20:28 50° 329° (NNW) 1,065 5.9 -33.1°
Drops below altitude 10° 05:24:29 10° 343° (NNW) 2,463 8.3 -33.7°
Sets 05:26:51 0° 345° (NNW) 3,400 9.2 -34.0°
